ICO G1

Last updated on Tue Jul 01 2025 00:02:44 GMT+0000 (Coordinated Universal Time)

1 32763U 08016A 25181.54946201 -.00000175 00000+0 00000+0 0 9996 2 32763 5.4628 36.8821 0002817 44.6051 302.3255 1.00272223 63013
UTC large
Height (km)
Speed (km/s)
/
Latitude / Longitude
Inclination (degrees)
Orbital Period (minutes)
Azimuth
Elevation
Range (km)
Doppler Factor

Next 0 passes for location: London (51.5072 / 0.1276)

Sorry there are no passes over London.